Location: Newark
(46.7000°N, 60.6000°W)
Time: 07:19:52
(UTC+00:00)

Vanguard 3 - Pass Details

Date: 03 November 2020
Orbit: 508 x 3262 km, 33.3° (Epoch: 29 November)

Event Time Altitude Azimuth Distance (km) Brightness Sun altitude
Rises 05:52:45 0° 194° (SSW) 5,021 - -48.9°
Reaches altitude 10° 05:56:45 10° 180° (S) 4,459 - -48.4°
Exits shadow 06:03:11 21° 149° (SSE) 4,193 10.6 -47.5°
Maximum altitude 06:05:54 22° 135° (SE) 4,327 10.8 -47.2°
Drops below altitude 10° 06:17:49 10° 94° (E) 5,985 12.0 -45.5°
Sets 06:24:26 0° 82° (E) 7,195 12.6 -44.5°
